Regional Weather Roundup
Issued by NWS

Home | Current Version | Previous Version | Graphics & Text | Print | Product List | Glossary On
Versions: 1 2 3 4 5 6 7 8 9 10 11 12 13 14 15 16 17 18 19 20 21 22 23 24 25 26 27 28 29 30 31 32 33 34 35 36 37 38 39 40 41 42 43 44 45 46 47 48 49 50
000
ASUS43 KBIS 171210
RWRND

NORTH DAKOTA REGIONAL WEATHER ROUNDUP
NATIONAL WEATHER SERVICE BISMARCK ND
600 AM CST TUE JAN 17 2017

NOTE: "FAIR" INDICATES FEW OR NO CLOUDS BELOW 12,000 FEET WITH NO
SIGNIFICANT WEATHER AND/OR OBSTRUCTIONS TO VISIBILITY.


NDZ001>003-009>011-017-171300-
NORTHWEST NORTH DAKOTA

CITY           SKY/WX    TMP DP  RH WIND       PRES   REMARKS
WILLISTON      FAIR       7   3  84 S6        29.85F WCI  -3
6HR MIN TEMP:   5; 6HR MAX TEMP:  10;

MINOT          FAIR      21  15  78 SW12      29.86F WCI   9
$$

NDZ018>021-031>035-040>046-171300-
SOUTHWEST NORTH DAKOTA

CITY           SKY/WX    TMP DP  RH WIND       PRES   REMARKS
BISMARCK       FAIR       0  -6  76 S3        29.97F
6HR MIN TEMP:  -1; 6HR MAX TEMP:  12;

DICKINSON      FAIR      14   6  70 S10       29.87F WCI   1
GARRISON         N/A      6   2  83 CALM      29.90F
6HR MIN TEMP:   3; 6HR MAX TEMP:  11;

HETTINGER ARPT CLOUDY     6   1  80 W3        29.93F
$$

NDZ004>008-012>016-024-026-027-054-171300-
NORTHEAST NORTH DAKOTA

CITY           SKY/WX    TMP DP  RH WIND       PRES   REMARKS
GRAND FORKS    CLOUDY     2  -3  80 S7        29.95F WCI -11
GRND FRKS AFB  CLEAR      7   3  85 W5        29.94F WCI  -2
DEVILS LAKE    FAIR       9   6  88 SW6       29.92F WCI  -1
$$

NDZ022-023-025-028>030-036>039-047>053-171300-
SOUTHEAST NORTH DAKOTA

CITY           SKY/WX    TMP DP  RH WIND       PRES   REMARKS
FARGO          CLOUDY     2  -2  83 SW6       29.99S WCI  -9
6HR MIN TEMP:   1; 6HR MAX TEMP:   6;

JAMESTOWN      FAIR      10   7  87 W6        29.94F WCI   0
$$





USA.gov is the U.S. government's official web portal to all federal, state and local government web resources and services.